Location: Arpaise
(41.0333°N, 14.7333°E)
Time: 08:06:19
(UTC+00:00)

USA 215 - Pass Details

Date: 05 July 2020
Orbit: 1102 x 1106 km, 123.0° (Epoch: 31 July)

Event Time Altitude Azimuth Distance (km) Brightness Sun altitude
Rises 19:15:11 0° 54° (NE) 3,923 6.0 -6.8°
Reaches altitude 10° 19:17:56 10° 63° (ENE) 2,962 5.3 -7.2°
Maximum altitude 19:23:48 35° 127° (SE) 1,708 3.8 -8.1°
Drops below altitude 10° 19:29:38 10° 191° (S) 2,950 5.2 -8.9°
Sets 19:32:22 0° 200° (SSW) 3,905 5.9 -9.3°
